World > North America > United States > New York > Schoharie County

Hourly Schoharie County, NY Regional Weather

Feedback E-mail the Weather

Quick WX

Schoharie County, NY Weather Maps

°F °C°F °C
Schoharie County Weather Map
UTC Time: 8/11/2022, 11:30
Your Time:

Schoharie County, NY Regional Weather

Expires:202208111200;;844887
ASUS41 KALY 111110
RWRALY

NEW YORK STATE HOURLY WEATHER ROUNDUP
NATIONAL WEATHER SERVICE ALBANY NY
700 AM EDT THU AUG 11 2022

NOTE: "FAIR" INDICATES FEW OR NO CLOUDS BELOW 12,000 FEET WITH NO
SIGNIFICANT WEATHER AND/OR NO OBSTRUCTIONS TO VISIBILITY.


NYZ032-033-038>043-046>054-057>066-NYZ062>081-082-084-111200-
EAST

  
CITY           SKY/WX    TMP DP  RH WIND       PRES   REMARKS
ALBANY         PTSUNNY   65  60  84 CALM      29.94S                  
GLENS FALLS    FOG       56  56 100 CALM      29.93R VSB 1/2          
POUGHKEEPSIE   PTCLDY    66  61  84 CALM      29.94R                  
NEWBURGH       MOCLDY    66  61  82 CALM      29.95R                  
MONTGOMERY     MOCLDY    64  60  87 CALM      29.95R                  
WHITE PLAINS   CLOUDY    73  72  96 CALM      29.93S                  
ISLIP          PTSUNNY   75  73  93 E3        29.91S                  
NEW YORK CITY  LGT RAIN  75  71  87 E5        29.92R                  
CENTRAL PARK   LGT RAIN  74  71  91 N3        29.95R FOG              
$$


SKY/WX - Weather  TMP - Temperature  DP - Dew Point  RH - Humidity
WIND - Wind Direction/Speed PRES - Barometric Pressure VSB - Visibility
WCI - Wind Chill Index E13G22 Wind - East Wind 13 mph/Gusts of 22 mph

Trending Headlines

Schoharie County Radar Loop



Schoharie County Quick Facts


National Two Day Weather Forecast


E-mail the Schoharie County Weather Forecast

Voice your opinion or tell us about page issues...